Time,TemperatureF,DewpointF,PressureIn,WindDirection,WindDirectionDegrees,WindSpeedMPH,WindSpeedGustMPH,Humidity,HourlyPrecipIn,Conditions,Clouds,dailyrainin,SolarRadiationWatts/m^2,SoftwareType,DateUTC
2013-08-08 00:02:00,50.0,-99.9,-100.00,South,173,0.0,5.0,0,0.00,,,0.09,0.000000,,2013-08-08 07:02:00,
2013-08-08 00:43:00,52.0,-99.9,-100.00,South,180,3.0,8.0,0,0.00,,,0.09,0.000000,,2013-08-08 07:43:00,
2013-08-08 00:53:00,52.0,-99.9,-100.00,South,180,3.0,8.0,0,0.00,,,0.09,0.000000,,2013-08-08 07:53:00,
2013-08-08 01:02:00,52.0,-99.9,-100.00,South,180,3.0,8.0,0,0.00,,,0.09,0.000000,,2013-08-08 08:02:00,
2013-08-08 01:32:00,51.0,-99.9,-100.00,SSW,198,0.0,7.0,0,0.00,,,0.08,0.000000,,2013-08-08 08:32:00,
2013-08-08 01:43:00,51.0,-99.9,-100.00,SSW,198,0.0,7.0,0,0.00,,,0.08,0.000000,,2013-08-08 08:43:00,
2013-08-08 01:53:00,51.0,-99.9,-100.00,SSW,198,0.0,7.0,0,0.00,,,0.08,0.000000,,2013-08-08 08:53:00,
2013-08-08 02:02:00,51.0,-99.9,-100.00,SSW,198,0.0,7.0,0,0.00,,,0.08,0.000000,,2013-08-08 09:02:00,
2013-08-08 02:32:00,52.0,-99.9,-100.00,South,189,4.0,6.0,0,0.00,,,0.07,0.000000,,2013-08-08 09:32:00,
2013-08-08 02:43:00,52.0,-99.9,-100.00,South,189,4.0,6.0,0,0.00,,,0.07,0.000000,,2013-08-08 09:43:00,
2013-08-08 02:53:00,52.0,-99.9,-100.00,South,189,4.0,6.0,0,0.00,,,0.07,0.000000,,2013-08-08 09:53:00,
2013-08-08 03:02:00,52.0,-99.9,-100.00,South,189,4.0,6.0,0,0.00,,,0.07,0.000000,,2013-08-08 10:02:00,
2013-08-08 03:33:00,50.0,-99.9,-100.00,SSW,198,1.0,5.0,0,0.00,,,0.07,0.000000,,2013-08-08 10:33:00,
2013-08-08 03:43:00,50.0,-99.9,-100.00,SSW,198,1.0,5.0,0,0.00,,,0.07,0.000000,,2013-08-08 10:43:00,
2013-08-08 03:52:00,50.0,-99.9,-100.00,SSW,198,1.0,5.0,0,0.00,,,0.07,0.000000,,2013-08-08 10:52:00,
2013-08-08 04:02:00,50.0,-99.9,-100.00,SSW,198,1.0,5.0,0,0.00,,,0.07,0.000000,,2013-08-08 11:02:00,
2013-08-08 04:32:00,49.0,-99.9,-100.00,SSW,210,1.0,4.0,0,0.00,,,0.07,0.000000,,2013-08-08 11:32:00,
2013-08-08 04:43:00,49.0,-99.9,-100.00,SSW,210,1.0,4.0,0,0.00,,,0.07,0.000000,,2013-08-08 11:43:00,
2013-08-08 04:52:00,49.0,-99.9,-100.00,SSW,210,1.0,4.0,0,0.00,,,0.07,0.000000,,2013-08-08 11:52:00,
2013-08-08 05:02:00,49.0,-99.9,-100.00,SSW,210,1.0,4.0,0,0.00,,,0.07,0.000000,,2013-08-08 12:02:00,
2013-08-08 05:32:00,46.0,-99.9,-100.00,South,184,0.0,5.0,0,0.00,,,0.07,0.000000,,2013-08-08 12:32:00,
2013-08-08 05:43:00,46.0,-99.9,-100.00,South,184,0.0,5.0,0,0.00,,,0.07,0.000000,,2013-08-08 12:43:00,
2013-08-08 05:53:00,46.0,-99.9,-100.00,South,184,0.0,5.0,0,0.00,,,0.07,0.000000,,2013-08-08 12:53:00,
2013-08-08 06:02:00,46.0,-99.9,-100.00,South,184,0.0,5.0,0,0.00,,,0.07,0.000000,,2013-08-08 13:02:00,
2013-08-08 06:32:00,47.0,-99.9,-100.00,South,183,0.0,4.0,0,0.01,,,0.08,3.000000,,2013-08-08 13:32:00,
2013-08-08 06:43:00,47.0,-99.9,-100.00,South,183,0.0,4.0,0,0.01,,,0.08,3.000000,,2013-08-08 13:43:00,
2013-08-08 06:53:00,47.0,-99.9,-100.00,South,183,0.0,4.0,0,0.01,,,0.08,3.000000,,2013-08-08 13:53:00,
2013-08-08 07:02:00,47.0,-99.9,-100.00,South,183,0.0,4.0,0,0.01,,,0.08,3.000000,,2013-08-08 14:02:00,
2013-08-08 08:02:00,55.0,-99.9,-100.00,South,178,0.0,3.0,0,0.00,,,0.08,140.000000,,2013-08-08 15:02:00,
2013-08-08 08:53:00,66.0,-99.9,-100.00,SSW,200,2.0,6.0,0,0.00,,,0.08,359.000000,,2013-08-08 15:53:00,
2013-08-08 09:02:00,66.0,-99.9,-100.00,SSW,200,2.0,6.0,0,0.00,,,0.08,359.000000,,2013-08-08 16:02:00,
2013-08-08 09:52:00,73.0,-99.9,-100.00,SSW,206,4.0,9.0,0,0.00,,,0.08,552.000000,,2013-08-08 16:52:00,
2013-08-08 10:32:00,75.0,-99.9,-100.00,ENE,62,4.0,11.0,0,0.00,,,0.08,762.000000,,2013-08-08 17:32:00,
2013-08-08 10:43:00,75.0,-99.9,-100.00,ENE,62,4.0,11.0,0,0.00,,,0.08,762.000000,,2013-08-08 17:43:00,
2013-08-08 10:52:00,75.0,-99.9,-100.00,ENE,62,4.0,11.0,0,0.00,,,0.08,762.000000,,2013-08-08 17:52:00,
2013-08-08 11:02:00,75.0,-99.9,-100.00,ENE,62,4.0,11.0,0,0.00,,,0.08,762.000000,,2013-08-08 18:02:00,
2013-08-08 11:32:00,76.0,-99.9,-100.00,West,277,3.0,17.0,0,0.00,,,0.08,877.000000,,2013-08-08 18:32:00,
2013-08-08 11:43:00,76.0,-99.9,-100.00,West,277,3.0,17.0,0,0.00,,,0.08,877.000000,,2013-08-08 18:43:00,
2013-08-08 11:53:00,76.0,-99.9,-100.00,West,277,3.0,17.0,0,0.00,,,0.08,877.000000,,2013-08-08 18:53:00,
2013-08-08 12:02:00,76.0,-99.9,-100.00,West,277,3.0,17.0,0,0.00,,,0.08,877.000000,,2013-08-08 19:02:00,
2013-08-08 12:32:00,77.0,-99.9,-100.00,ESE,105,4.0,12.0,0,0.00,,,0.08,1007.000000,,2013-08-08 19:32:00,
2013-08-08 12:43:00,77.0,-99.9,-100.00,ESE,105,4.0,12.0,0,0.00,,,0.08,1007.000000,,2013-08-08 19:43:00,
2013-08-08 12:59:00,77.0,-99.9,-100.00,ESE,105,4.0,12.0,0,0.00,,,0.08,1007.000000,,2013-08-08 19:59:00,
2013-08-08 13:32:00,78.0,-99.9,-100.00,WNW,285,4.0,18.0,0,0.00,,,0.08,1057.000000,,2013-08-08 20:32:00,
2013-08-08 13:42:00,78.0,-99.9,-100.00,WNW,285,4.0,18.0,0,0.00,,,0.08,1057.000000,,2013-08-08 20:42:00,
2013-08-08 13:53:00,78.0,-99.9,-100.00,WNW,285,4.0,18.0,0,0.00,,,0.08,1057.000000,,2013-08-08 20:53:00,
2013-08-08 14:01:00,78.0,-99.9,-100.00,WNW,285,4.0,18.0,0,0.00,,,0.08,1057.000000,,2013-08-08 21:01:00,
2013-08-08 14:03:00,77.0,-99.9,-100.00,ENE,75,6.0,16.0,0,0.00,,,0.08,1041.000000,,2013-08-08 21:03:00,
2013-08-08 14:35:00,77.0,-99.9,-100.00,ENE,75,6.0,16.0,0,0.00,,,0.08,1041.000000,,2013-08-08 21:35:00,
2013-08-08 14:58:00,77.0,-99.9,-100.00,ENE,75,6.0,16.0,0,0.00,,,0.08,1041.000000,,2013-08-08 21:58:00,
2013-08-08 15:38:00,80.0,-99.9,-100.00,SW,231,5.0,14.0,0,0.00,,,0.08,941.000000,,2013-08-08 22:38:00,
2013-08-08 15:50:00,80.0,-99.9,-100.00,SW,231,5.0,14.0,0,0.00,,,0.08,941.000000,,2013-08-08 22:50:00,
2013-08-08 15:58:00,80.0,-99.9,-100.00,SW,231,5.0,14.0,0,0.00,,,0.08,941.000000,,2013-08-08 22:58:00,
2013-08-08 16:03:00,79.0,-99.9,-100.00,ESE,105,3.0,17.0,0,0.00,,,0.08,795.000000,,2013-08-08 23:03:00,
2013-08-08 16:37:00,79.0,-99.9,-100.00,ESE,105,3.0,17.0,0,0.00,,,0.08,795.000000,,2013-08-08 23:37:00,
2013-08-08 16:52:00,79.0,-99.9,-100.00,ESE,105,3.0,17.0,0,0.00,,,0.08,795.000000,,2013-08-08 23:52:00,
2013-08-08 16:58:00,79.0,-99.9,-100.00,ESE,105,3.0,17.0,0,0.00,,,0.08,795.000000,,2013-08-08 23:58:00,
2013-08-08 17:03:00,79.0,-99.9,-100.00,NE,42,3.0,12.0,0,0.00,,,0.08,598.000000,,2013-08-09 00:03:00,
2013-08-08 17:36:00,79.0,-99.9,-100.00,NE,42,3.0,12.0,0,0.00,,,0.08,598.000000,,2013-08-09 00:36:00,
2013-08-08 17:48:00,79.0,-99.9,-100.00,NE,42,3.0,12.0,0,0.00,,,0.08,598.000000,,2013-08-09 00:48:00,
2013-08-08 17:58:00,79.0,-99.9,-100.00,NE,42,3.0,12.0,0,0.00,,,0.08,598.000000,,2013-08-09 00:58:00,
2013-08-08 18:03:00,75.0,-99.9,-100.00,NE,36,3.0,13.0,0,0.00,,,0.01,197.000000,,2013-08-09 01:03:00,
2013-08-08 18:39:00,75.0,-99.9,-100.00,NE,36,3.0,13.0,0,0.00,,,0.01,197.000000,,2013-08-09 01:39:00,
2013-08-08 18:48:00,75.0,-99.9,-100.00,NE,36,3.0,13.0,0,0.00,,,0.01,197.000000,,2013-08-09 01:48:00,
2013-08-08 19:01:00,75.0,-99.9,-100.00,NE,36,3.0,13.0,0,0.00,,,0.01,197.000000,,2013-08-09 02:01:00,
2013-08-08 19:03:00,68.0,-99.9,-100.00,South,181,1.0,13.0,0,0.00,,,0.01,36.000000,,2013-08-09 02:03:00,
2013-08-08 19:39:00,68.0,-99.9,-100.00,South,181,1.0,13.0,0,0.00,,,0.01,36.000000,,2013-08-09 02:39:00,
2013-08-08 19:48:00,68.0,-99.9,-100.00,South,181,1.0,13.0,0,0.00,,,0.01,36.000000,,2013-08-09 02:48:00,
2013-08-08 19:57:00,68.0,-99.9,-100.00,South,181,1.0,13.0,0,0.00,,,0.01,36.000000,,2013-08-09 02:57:00,
2013-08-08 20:36:00,57.0,-99.9,-100.00,South,186,3.0,9.0,0,0.00,,,0.01,3.000000,,2013-08-09 03:36:00,
2013-08-08 20:49:00,57.0,-99.9,-100.00,South,186,3.0,9.0,0,0.00,,,0.01,3.000000,,2013-08-09 03:49:00,
2013-08-08 20:57:00,57.0,-99.9,-100.00,South,186,3.0,9.0,0,0.00,,,0.01,3.000000,,2013-08-09 03:57:00,
2013-08-08 21:02:00,57.0,-99.9,-100.00,South,186,3.0,9.0,0,0.00,,,0.01,3.000000,,2013-08-09 04:02:00,
2013-08-08 21:33:00,59.0,-99.9,-100.00,South,179,4.0,7.0,0,0.00,,,0.01,0.000000,,2013-08-09 04:33:00,
2013-08-08 21:43:00,59.0,-99.9,-100.00,South,179,4.0,7.0,0,0.00,,,0.01,0.000000,,2013-08-09 04:43:00,
2013-08-08 21:53:00,59.0,-99.9,-100.00,South,179,4.0,7.0,0,0.00,,,0.01,0.000000,,2013-08-09 04:53:00,
2013-08-08 22:02:00,59.0,-99.9,-100.00,South,179,4.0,7.0,0,0.00,,,0.01,0.000000,,2013-08-09 05:02:00,
2013-08-08 22:33:00,58.0,-99.9,-100.00,South,179,4.0,8.0,0,0.00,,,0.01,0.000000,,2013-08-09 05:33:00,
2013-08-08 22:43:00,58.0,-99.9,-100.00,South,179,4.0,8.0,0,0.00,,,0.01,0.000000,,2013-08-09 05:43:00,
2013-08-08 22:52:00,58.0,-99.9,-100.00,South,179,4.0,8.0,0,0.00,,,0.01,0.000000,,2013-08-09 05:52:00,
2013-08-08 23:01:00,58.0,-99.9,-100.00,South,179,4.0,8.0,0,0.00,,,0.01,0.000000,,2013-08-09 06:01:00,
2013-08-08 23:32:00,58.0,-99.9,-100.00,South,190,4.0,7.0,0,0.00,,,0.01,0.000000,,2013-08-09 06:32:00,
2013-08-08 23:43:00,58.0,-99.9,-100.00,South,190,4.0,7.0,0,0.00,,,0.01,0.000000,,2013-08-09 06:43:00,
2013-08-08 23:52:00,58.0,-99.9,-100.00,South,190,4.0,7.0,0,0.00,,,0.01,0.000000,,2013-08-09 06:52:00,